Durango, CO

10:57 PM MDT on July 20, 2017 (GMT -0600)
Durango-La Plata County

Weather History for KDRO - September, 2013

Change the Weather History Date:

Wednesday, September 25, 2013

  Actual Average Record
Temperature  
Mean Temperature 57 °F 55 °F  
Max Temperature 76 °F 72 °F 84 °F (1989)
Min Temperature 37 °F 39 °F 25 °F (2000)
Degree Days  
Heating Degree Days 8 10  
Month to date heating degree days 93 139  
Since 1 July heating degree days 106 168  
Cooling Degree Days 0 0  
Month to date cooling degree days 39 3  
Year to date cooling degree days 388 240  
Growing Degree Days 7 (Base 50)    
Moisture  
Dew Point 34 °F    
Average Humidity 53    
Maximum Humidity 86    
Minimum Humidity 19    
Precipitation  
Precipitation 0.00 in 0.06 in 0.84 in (1976)
Month to date precipitation 4.64 1.67  
Year to date precipitation 12.85 11.64  
Sea Level Pressure  
Sea Level Pressure 29.81 in    
Wind  
Wind Speed 8 mph (South)    
Max Wind Speed 24 mph    
Max Gust Speed 36 mph    
Visibility 10 miles    
Events      
T = Trace of Precipitation, MM = Missing Value Source: NWS Daily Summary

Daily Weather History Graph

Daily Weather History Graph

Search for Another Location

Airport or City:

Trip Planner

Search our weather history database for the weather conditions in past years. The results will help you decide how hot, cold, wet, or windy it might be!

Date:

Astronomy

Sep. 25, 2013 Rise Set
Actual Time 7:01 AM MDT 7:02 PM MDT
Civil Twilight 6:35 AM MDT 7:28 PM MDT
Nautical Twilight 6:05 AM MDT 7:58 PM MDT
Astronomical Twilight 5:34 AM MDT 8:29 PM MDT
Moon 11:18 PM MDT (9/25) 1:02 PM MDT (9/25)
Length of Visible Light 12h 53m
Length of Day
12h 01m
Waning Gibbous, 63% of the Moon is Illuminated
Sep 25
Waning Gibbous
Sep 26
Last Quarter
Oct 4
New
Oct 11
First Quarter
Oct 18
Full

Hourly Weather History & Observations

Time (MDT) Temp. Windchill Dew Point Humidity Pressure Visibility Wind Dir Wind Speed Gust Speed Precip Events Conditions
12:53 AM 45.0 °F - 37.0 °F 74% 29.96 in 10.0 mi Calm Calm - N/A   Clear
1:53 AM 44.1 °F 41.5 °F 36.0 °F 73% 29.94 in 10.0 mi North 4.6 mph - N/A   Clear
2:53 AM 43.0 °F 41.3 °F 36.0 °F 76% 29.93 in 10.0 mi ENE 3.5 mph - N/A   Clear
3:53 AM 39.9 °F - 36.0 °F 86% 29.93 in 10.0 mi Calm Calm - N/A   Clear
4:53 AM 41.0 °F 39.0 °F 36.0 °F 82% 29.91 in 10.0 mi North 3.5 mph - N/A   Clear
5:53 AM 39.0 °F 36.8 °F 35.1 °F 86% 29.92 in 10.0 mi ENE 3.5 mph - N/A   Clear
6:53 AM 39.9 °F - 34.0 °F 79% 29.93 in 10.0 mi Calm Calm - N/A   Clear
7:53 AM 41.0 °F 39.0 °F 37.0 °F 86% 29.97 in 10.0 mi East 3.5 mph - N/A   Clear
8:53 AM 48.9 °F - 36.0 °F 61% 29.95 in 10.0 mi Calm Calm - N/A   Clear
9:53 AM 55.0 °F - 42.1 °F 62% 29.92 in 10.0 mi NE 4.6 mph - N/A   Clear
10:53 AM 61.0 °F - 37.0 °F 41% 29.88 in 10.0 mi ESE 6.9 mph - N/A   Clear
11:53 AM 64.9 °F - 39.9 °F 40% 29.85 in 10.0 mi East 10.4 mph - N/A   Clear
12:53 PM 71.1 °F - 35.1 °F 27% 29.78 in 10.0 mi SSW 16.1 mph 23.0 mph N/A   Clear
1:53 PM 72.0 °F - 35.1 °F 26% 29.72 in 10.0 mi SW 16.1 mph 28.8 mph N/A   Clear
2:42 PM 73.4 °F - 35.6 °F 25% 29.89 in 10.0 mi SW 18.4 mph 26.5 mph N/A   Partly Cloudy
2:53 PM 73.0 °F - 34.0 °F 24% 29.69 in 10.0 mi SW 12.7 mph - N/A   Clear
3:53 PM 73.9 °F - 33.1 °F 22% 29.68 in 10.0 mi South 15.0 mph 21.9 mph N/A   Mostly Cloudy
4:53 PM 75.0 °F - 30.9 °F 20% 29.65 in 10.0 mi SSW 13.8 mph - N/A   Partly Cloudy
5:53 PM 73.0 °F - 30.9 °F 21% 29.66 in 10.0 mi SW 17.3 mph 25.3 mph N/A   Clear
6:53 PM 70.0 °F - 32.0 °F 25% 29.66 in 10.0 mi SSW 13.8 mph 21.9 mph N/A   Partly Cloudy
7:53 PM 66.9 °F - 28.9 °F 24% 29.68 in 10.0 mi South 13.8 mph - N/A   Clear
8:53 PM 64.9 °F - 28.0 °F 25% 29.68 in 10.0 mi SSW 11.5 mph 24.2 mph N/A   Clear
9:53 PM 60.1 °F - 30.0 °F 32% 29.69 in 10.0 mi SW 6.9 mph - N/A   Clear
10:53 PM 57.9 °F - 30.0 °F 35% 29.69 in 10.0 mi West 4.6 mph - N/A   Clear
11:53 PM 55.9 °F - 28.9 °F 36% 29.69 in 10.0 mi Variable 3.5 mph - N/A   Clear